Regional Weather Roundup
Issued by NWS Northern Indiana

Home | Current Version | Previous Version | Graphics & Text | Print | Product List | Glossary On
Versions: 1 2 3 4 5 6 7 8 9 10 11 12 13 14 15 16 17 18 19 20 21 22 23 24 25 26 27 28 29 30 31 32 33 34 35 36 37 38 39 40 41 42 43 44 45 46 47 48 49 50
000
ASUS43 KIWX 040510
RWRIWX

KIWX WEATHER ROUNDUP
NATIONAL WEATHER SERVICE NORTHERN INDIANA
100 AM EDT SAT JUL 04 2015

NOTE: "FAIR" INDICATES FEW OR NO CLOUDS BELOW 12,000 FEET WITH NO
SIGNIFICANT WEATHER AND/OR OBSTRUCTIONS TO VISIBILITY.

* THESE STATIONS ARE NOT UNDER NWS QUALITY CONTROL. THEY ALSO MAY NOT
  REPORT WEATHER SUCH AS PRECIPITATION OR FOG.

INZ001>027-040600-
NORTHERN INDIANA

CITY           SKY/WX    TMP DP  RH WIND       PRES   REMARKS
GARY*          CLEAR    N/A N/A N/A CALM      29.95S FOG
VALPARAISO     CLEAR     57  54  89 CALM      29.96R
MICHIGAN CITY* CLEAR     54  54 100 CALM      29.96R FOG
LAPORTE*       CLEAR     57  57 100 CALM      29.96S FOG
KNOX*          CLEAR     57  57 100 CALM      29.94S
SOUTH BEND     CLEAR     59  54  83 CALM      29.96R
GOSHEN         CLEAR     58  54  86 CALM      29.95R
MONTICELLO*    CLEAR     63  60  90 CALM      29.94F
LOGANSPORT*    CLEAR     61  57  88 N5        29.95F
ROCHESTER*     CLEAR     63  59  88 CALM      29.95S
WARSAW*          N/A     59  57  94 CALM      29.95S FOG
ANGOLA*          N/A     59  46  63 CALM      29.95S
FORT WAYNE     PTCLDY    64  58  80 CALM      29.95S
HUNTINGTON*    CLEAR     61  59  95 CALM      29.94S
PERU/GRISSOM   PTCLDY    66  61  82 N2        29.94R
MARION*        CLEAR     62  60  94 CALM      29.95S FOG

$$
INZ028>050-040600-
CENTRAL INDIANA

CITY           SKY/WX    TMP DP  RH WIND       PRES   REMARKS
LAFAYETTE      CLEAR     63  59  87 N6        29.94S
KOKOMO*        PTCLDY    63  57  82 CALM      29.94S
MUNCIE*        PTCLDY    66  62  87 CALM      29.94S
INDIANAPOLIS   CLOUDY    70  62  76 N3        29.92S

$$
MIZ043>046-050>051-056>058-064>065-071>073-077>080-040600-
SOUTHWEST LOWER MICHIGAN

CITY           SKY/WX    TMP DP  RH WIND       PRES   REMARKS
BATTLE CREEK   CLEAR     60  55  83 CALM      29.96R
BENTON HARBOR  CLEAR     55  53  93 CALM      29.95R FOG
COLDWATER*     CLEAR     57  55  95 CALM      29.95R
HILLSDALE*     CLEAR     57  57 100 CALM      29.96R
HOLLAND        CLEAR     57  53  86 CALM      29.96R
GRAND RAPIDS   CLEAR     62  51  67 CALM      29.95S
KALAMAZOO      CLEAR     59  54  83 CALM      29.96R
STURGIS*       CLEAR     57  55  94 CALM      29.95R
THREE RIVERS*  FAIR      60  56  88 CALM      29.96R

$$
OHZ001>008-015>018-024>025-040600-
NORTHWEST OHIO

CITY           SKY/WX    TMP DP  RH WIND       PRES   REMARKS
DEFIANCE       CLEAR     59  55  87 CALM      29.94S
FINDLAY        CLEAR     59  53  80 NW3       29.93S
TOLEDO EXPRESS CLEAR     56  52  86 CALM      29.94R
TOLEDO METCALF CLEAR     60  53  77 CALM      29.94S
LIMA           CLEAR     59  55  87 N3        29.94S

$$
AND FOR LAKE MICHIGAN COASTAL AND OPEN LAKE BUOY OBSERVATIONS

STATION/POSITION TEMP    WIND        PRES    VSBY  WAVE
                 AIR SEA DIR/SP/G                  HT/PER
                 (F)     (DEG/KT/KT) (MB)    (MI)  (FT/S)
CALUMET HARBOR    64     190/  1/  2   N/A
MICHIGAN CITY     63     110/  5/  6   N/A
BURNS HARBOR      65     200/  1/  2 1014.6S
SAINT JOSEPH      61     100/  2/  4   N/A
4 MI NW BRIDGMAN  61 62                N/A           1
MICHIGAN CITY     62 64  180/  2/  2   N/A           1

$$
&&



USA.gov is the U.S. government's official web portal to all federal, state and local government web resources and services.